Location: Branche des Alpilles
(43.6087°N, 4.6976°E)
Time: 10:42:04
(UTC+00:00)

Envisat - Pass Details

Date: 30 September 2021
Orbit: 764 x 766 km, 98.2° (Epoch: 20 October)

Event Time Altitude Azimuth Distance (km) Brightness Sun altitude
Rises 04:11:24 0° 21° (NNE) 3,240 6.7 -16.3°
Reaches altitude 10° 04:13:55 10° 31° (NNE) 2,309 6.1 -15.9°
Maximum altitude 04:18:33 35° 96° (E) 1,226 4.7 -15.1°
Drops below altitude 10° 04:23:09 10° 162° (SSE) 2,293 5.6 -14.3°
Sets 04:25:37 0° 171° (S) 3,214 6.2 -13.8°
